This is the latest recevied weather packets stored in our database for station/object F4ISX-10. If no packets are shown the sender has not sent any weather packets the latest 10 day(s).
| Time | Temp. | Humidity | Pressure | Rain* | Wind** | Luminosity | Snow |
|---|---|---|---|---|---|---|---|
| 1777829747 | 18.89° C | 63% | 1011.9 hPa | - | - | - | - |
| 1777828847 | 18.89° C | 63% | 1011.8 hPa | - | - | - | - |
| 1777827947 | 18.89° C | 63% | 1011.9 hPa | - | - | - | - |
| 1777827047 | 18.89° C | 65% | 1011.8 hPa | - | - | - | - |
| 1777826146 | 18.89° C | 65% | 1011.7 hPa | - | - | - | - |
| 1777825246 | 18.89° C | 66% | 1012 hPa | - | - | - | - |
| 1777824346 | 18.89° C | 67% | 1012 hPa | - | - | - | - |
| 1777823446 | 18.89° C | 67% | 1012.1 hPa | - | - | - | - |
| 1777822546 | 18.89° C | 68% | 1012.2 hPa | - | - | - | - |
| 1777821645 | 18.33° C | 67% | 1012.3 hPa | - | - | - | - |
| 1777820745 | 18.89° C | 67% | 1012.4 hPa | - | - | - | - |
| 1777819845 | 18.89° C | 66% | 1012.5 hPa | - | - | - | - |
| 1777818945 | 18.33° C | 67% | 1012.7 hPa | - | - | - | - |
| 1777818045 | 18.33° C | 67% | 1012.8 hPa | - | - | - | - |
| 1777817144 | 18.33° C | 67% | 1012.9 hPa | - | - | - | - |
| 1777816244 | 18.33° C | 68% | 1012.9 hPa | - | - | - | - |
| 1777815344 | 18.33° C | 66% | 1013.1 hPa | - | - | - | - |
| 1777814444 | 18.33° C | 67% | 1013.1 hPa | - | - | - | - |
| 1777813544 | 18.33° C | 66% | 1013 hPa | - | - | - | - |
| 1777812643 | 18.33° C | 68% | 1013.1 hPa | - | - | - | - |
| 1777811743 | 17.78° C | 70% | 1013.1 hPa | - | - | - | - |
| 1777810843 | 18.33° C | 67% | 1013.2 hPa | - | - | - | - |
| 1777809943 | 17.78° C | 68% | 1013.2 hPa | - | - | - | - |
| 1777809043 | 17.78° C | 68% | 1013.3 hPa | - | - | - | - |
| 1777808142 | 17.78° C | 68% | 1013.4 hPa | - | - | - | - |
* Rain since midnight (hover to see other rain measurements)
** Current wind speed in m/s (hover to see current wind gust speed)